Location: Drignac
(45.1667°N, 2.0333°E)
Time: 09:39:11
(UTC+00:00)

Daily predictions for brighter satellites

Satellite Brightness Start Highest point End
(mag) Time Altitude Azimuth Time Altitude Azimuth Time Altitude Azimuth
Meteor 2-14 Rocket 4.5 18:35:29 10° N 18:41:35 87° E 18:47:38 10° S
Cosmos 1455 Rocket 3.6 18:40:36 10° SSE 18:44:33 35° E 18:48:32 10° NNE
STARLINK-1225 3.9 18:42:25 10° SSW 18:46:16 47° SE 18:50:10 10° ENE
Cosmos 1110 Rocket 4.1 18:42:29 10° NNW 18:47:40 57° ENE 18:52:47 10° SE
STARLINK-1203 3.7 18:44:22 10° SW 18:48:12 52° SE 18:52:03 10° ENE
Cosmos 332 Rocket 3.8 18:43:59 10° NNW 18:48:56 81° ENE 18:53:51 10° SSE
STARLINK-1072 4.0 18:46:20 10° NW 18:50:14 50° NNE 18:54:08 10° E
SL-16 R/B 2.8 18:45:31 10° SSE 18:50:29 33° ESE 18:55:29 10° NE
Cosmos 2333 Rocket 3.9 18:45:34 10° WSW 18:50:50 38° NW 18:56:07 10° NNE
STARLINK-1230 3.8 18:46:59 10° SW 18:50:54 51° SE 18:54:50 10° ENE
Cosmos 1892 Rocket 3.6 18:47:09 10° N 18:51:37 61° E 18:56:03 10° SSE
USA 186 2.7 18:50:57 10° SE 18:54:04 32° ENE 18:57:08 10° N
STARLINK-1234 3.0 18:51:14 10° WSW 18:54:13 71° NNW 18:57:13 10° NE
CSL-04 Rocket 4.2 18:49:15 10° S 18:54:31 64° WSW 18:59:47 10° NNW
STARLINK-1096 3.9 18:50:47 10° NW 18:54:43 52° NNE 18:58:31 11° ESE
ARGOS Delta rocket 4.2 18:50:06 10° SSE 18:55:03 57° ENE 19:00:18 10° N
STARLINK-1243 3.7 18:51:38 10° SW 18:55:35 55° SE 18:59:32 10° ENE
Meteor 2-16 Rocket 4.5 18:49:34 10° N 18:55:46 81° E 19:01:55 10° S
Cosmos 1626 3.0 18:52:47 10° NNE 18:56:04 29° ENE 18:59:20 10° SE
NOSS 2-1 (E) 4.1 18:53:39 10° WSW 18:56:57 48° NW 19:00:34 10° NNE
STARLINK-1079 3.8 18:55:15 10° NW 18:59:12 55° NNE 19:02:49 12° ESE
Okean 1-7 Rocket 3.6 18:55:09 10° N 18:59:32 63° E 19:03:52 10° SSE
STARLINK-1236 3.6 18:56:15 10° SW 19:00:14 60° SE 19:04:13 10° ENE
STARLINK-1116 3.8 18:59:43 10° NW 19:03:41 59° NNE 19:07:08 13° ESE
SJ-11-01 4.2 19:00:13 10° SSE 19:04:54 79° ENE 19:09:38 10° N
H-2A R/B 2.2 19:00:42 10° SSE 19:05:56 61° ENE 19:11:04 10° N
STARLINK-1269 3.5 19:05:36 10° SW 19:09:37 71° SE 19:13:39 10° ENE
STARLINK-1118 3.3 19:07:42 10° WNW 19:09:46 33° SW 19:11:31 12° SSE
ERBS 4.2 19:08:42 10° W 19:11:41 29° NNW 19:14:41 10° NNE
Cosmos 1544 Rocket 3.7 19:07:40 10° S 19:11:55 52° E 19:16:14 10° NNE
STARLINK-1094 3.6 19:08:41 10° NW 19:12:42 67° NNE 19:15:46 16° ESE
Cosmos 1745 Rocket 4.2 19:07:21 10° N 19:13:41 82° W 19:19:56 10° S
HJ-1C 4.2 19:10:45 10° S 19:14:01 53° W 19:17:19 10° NNW
STARLINK-1200 3.5 19:10:17 10° SW 19:14:18 76° SE 19:18:21 10° ENE
Cosmos 2297 3.8 19:09:45 10° NNW 19:15:22 60° ENE 19:20:56 10° SE
USA 234 3.4 19:09:57 10° ENE 19:16:21 55° SE 19:22:43 10° SSW
CZ-2C R/B 4.4 19:12:08 10° NNE 19:16:28 34° E 19:20:44 10° SSE
STARLINK-1117 3.6 19:13:12 10° NW 19:17:13 71° NNE 19:20:06 18° ESE
STARLINK-1192 3.5 19:14:54 10° SW 19:18:57 82° SE 19:23:00 10° ENE
Meteor 2-5 Rocket 4.1 19:13:25 10° NNW 19:19:04 68° W 19:24:34 10° S
Cosmos 1805 4.1 19:16:44 10° SSW 19:20:33 53° W 19:24:25 10° N
Cosmos 2237 Rocket 2.9 19:15:05 10° SW 19:20:36 58° WNW 19:26:11 10° NNE
ADEOS Rocket 4.2 19:14:45 10° N 19:21:20 51° WNW 19:27:15 10° SW
STARLINK-1078 3.5 19:17:41 10° NW 19:21:43 76° NNE 19:24:25 20° ESE
STARLINK-1244 3.5 19:19:41 10° SW 19:23:44 88° SSE 19:27:48 10° ENE
STARLINK-1201 3.6 19:20:58 10° WSW 19:24:11 56° NNW 19:27:25 10° NE
Cosmos 1302 Rocket 4.1 19:20:01 10° NNW 19:25:13 57° ENE 19:29:43 14° SE
STARLINK-1108 3.5 19:22:13 10° WNW 19:26:15 81° NNE 19:28:47 22° ESE
Cosmos 2278 Rocket 3.8 19:22:19 10° NW 19:27:25 35° WSW 19:32:30 10° S
Cosmos 1269 Rocket 4.0 19:22:37 10° SSW 19:27:54 80° ESE 19:33:13 10° NNE
STARLINK-1138 3.5 19:24:23 10° WSW 19:28:26 87° NNW 19:32:30 10° ENE
CZ-2C R/B 3.4 19:24:01 10° NE 19:28:28 28° E 19:32:37 11° SSE
STARLINK-1209 4.1 19:26:52 10° W 19:29:36 35° NNW 19:32:14 11° NE
STARLINK-1228 4.2 19:27:52 10° W 19:30:34 35° NNW 19:33:08 11° NE
STARLINK-1066 3.2 19:27:31 10° WNW 19:30:39 60° SW 19:32:18 24° SE
STARLINK-1071 3.5 19:26:44 10° WNW 19:30:46 86° NNE 19:33:08 24° ESE
STARLINK-1081 3.2 19:28:00 10° WNW 19:31:04 59° SW 19:32:41 25° SE
STARLINK-1070 3.2 19:28:26 10° WNW 19:31:31 59° SW 19:33:06 25° SE
STARLINK-1124 3.6 19:27:37 10° WNW 19:31:48 88° NE 19:34:14 24° ESE
STARLINK-1069 3.2 19:28:51 10° WNW 19:31:57 59° SW 19:33:34 25° SE
STARLINK-1085 3.2 19:29:17 10° WNW 19:32:24 58° SW 19:34:00 25° SE
STARLINK-1086 3.2 19:29:48 10° WNW 19:32:52 57° SW 19:34:25 25° SSE
STARLINK-1143 3.6 19:29:10 10° WSW 19:33:13 81° NNW 19:37:08 11° ENE
STARLINK-1095 3.3 19:30:14 10° WNW 19:33:19 57° SW 19:34:50 26° SSE
STARLINK-1077 3.3 19:30:41 10° WNW 19:33:45 56° SW 19:35:16 26° SSE
ARGOS 3.1 19:28:37 10° SSE 19:34:01 88° ENE 19:39:28 10° NNW
STARLINK-1075 3.3 19:31:09 10° WNW 19:34:13 55° SW 19:35:42 26° SSE
Meteor 1-24 Rocket 4.0 19:28:54 10° NNW 19:34:24 68° W 19:39:42 10° S
SL-8 R/B 4.1 19:29:49 10° W 19:34:32 57° N 19:38:02 18° ENE
STARLINK-1093 3.3 19:31:34 10° WNW 19:34:39 55° SW 19:36:10 26° SSE
Cosmos 2251 Rocket 4.4 19:30:30 10° SSE 19:34:55 27° E 19:39:24 10° NE
STARLINK-1074 3.3 19:32:00 10° WNW 19:35:06 55° SW 19:36:36 26° SSE
STARLINK-1110 3.5 19:31:15 10° WNW 19:35:17 88° SSW 19:37:29 26° SE
STARLINK-1087 3.3 19:32:30 10° WNW 19:35:34 54° SW 19:37:00 26° SSE
STARLINK-1088 3.3 19:32:58 10° WNW 19:36:00 53° SW 19:37:26 27° SSE
STARLINK-1115 3.4 19:33:22 10° WNW 19:36:28 53° SW 19:37:55 27° SSE
STARLINK-1076 3.4 19:33:49 10° WNW 19:36:54 52° SW 19:38:20 27° SSE
STARLINK-1092 3.4 19:34:17 10° WNW 19:37:22 52° SW 19:38:47 27° SSE
STARLINK-1080 3.4 19:34:46 10° WNW 19:37:49 51° SW 19:39:10 27° SSE
STARLINK-1090 3.4 19:35:12 10° WNW 19:38:15 51° SW 19:39:36 27° SSE
MOS 1 4.4 19:32:41 10° SSE 19:38:20 81° WSW 19:44:01 10° NNW
SL-24 R/B 4.2 19:33:55 10° NNE 19:38:24 48° E 19:42:19 10° S
STARLINK-1089 3.4 19:35:40 10° WNW 19:38:43 50° SW 19:40:02 28° SSE
STARLINK-1107 3.5 19:36:07 10° WNW 19:39:09 50° SW 19:40:28 28° SSE
Cosmos 1470 2.6 19:36:57 10° S 19:40:46 66° E 19:44:39 10° NNE
STARLINK-1241 3.8 19:39:39 10° WSW 19:43:40 69° NNW 19:47:06 14° NE
STARLINK-1119 4.5 19:39:55 10° NW 19:43:50 40° NNE 19:45:48 24° ENE
STARLINK-1233 4.2 19:41:02 10° W 19:44:00 38° NNW 19:46:21 15° NE
STARLINK-1122 3.5 19:40:25 10° WNW 19:44:27 77° SW 19:46:17 31° SE
STARLINK-1212 4.2 19:41:30 10° W 19:44:28 38° NNW 19:46:46 15° NE
STARLINK-1105 4.2 19:41:57 10° W 19:44:55 38° NNW 19:47:13 15° NE
Cosmos 2315 Rocket 4.0 19:38:39 10° S 19:44:56 82° E 19:51:20 10° N
SL-08 RB Rocket 3.6 19:40:53 11° SSE 19:45:12 84° ENE 19:49:47 10° NNW
STARLINK-1206 4.2 19:42:27 10° W 19:45:24 37° NNW 19:47:38 15° NE
STARLINK-1247 4.2 19:42:53 10° W 19:45:50 37° NNW 19:48:04 15° NE
STARLINK-1227 4.2 19:43:18 10° W 19:46:16 37° NNW 19:48:30 15° NE
SJ-6B 3.0 19:42:17 10° S 19:46:19 76° WSW 19:50:28 10° NNW
STARLINK-1218 4.2 19:43:48 10° W 19:46:44 37° NNW 19:48:55 15° NE
MetOp-A 4.1 19:42:29 16° SSE 19:46:49 66° ENE 19:52:08 10° N
ISS -2.4 19:43:52 10° NW 19:46:55 31° NNE 19:48:11 23° NE
Resurs 1-3 3.7 19:44:44 24° SE 19:47:08 55° ENE 19:51:26 10° N
STARLINK-1226 4.3 19:44:16 10° W 19:47:12 37° NNW 19:49:23 16° NE
STARLINK-1254 4.3 19:44:40 10° W 19:47:37 37° NNW 19:49:48 16° NE
STARLINK-1215 4.3 19:45:11 10° W 19:48:06 36° NNW 19:50:13 16° NE
STARLINK-1239 3.9 19:44:16 10° WSW 19:48:15 65° NNW 19:51:30 15° NE
STARLINK-1231 4.3 19:45:37 10° W 19:48:32 36° NNW 19:50:39 16° NE
Cosmos 1758 3.2 19:44:36 10° S 19:48:41 75° E 19:52:47 10° NNE
STARLINK-1114 4.4 19:44:55 10° NW 19:48:52 41° NNE 19:50:36 27° ENE
STARLINK-1126 3.6 19:45:03 10° WNW 19:49:05 72° SW 19:50:44 33° SE
STARLINK-1232 4.3 19:46:32 10° W 19:49:27 36° NNW 19:51:32 16° NE
STARLINK-1217 4.3 19:47:00 10° W 19:49:55 35° NNW 19:51:58 16° NE
STARLINK-1208 4.3 19:47:24 10° W 19:50:21 35° NNW 19:52:25 16° NE
STARLINK-1229 4.3 19:47:53 10° W 19:50:48 35° NNW 19:52:49 17° NE
STARLINK-1271 4.4 19:48:22 10° W 19:51:16 35° NNW 19:53:16 17° NE
BREEZE-M DEB (TANK) 4.3 19:44:35 10° WNW 19:51:38 50° N 19:53:10 27° ENE
STARLINK-1270 4.4 19:48:50 10° W 19:51:44 35° NNW 19:53:42 17° NE
BREEZE M DEB (TANK) 4.4 19:40:57 10° SW 19:52:04 38° SSE 19:53:49 29° ESE
STARLINK-1154 4.4 19:49:16 10° W 19:52:10 34° NNW 19:54:07 17° NE
CZ-2C R/B 3.5 19:47:44 10° S 19:52:46 59° W 19:57:35 10° NNW
STARLINK-1240 4.0 19:48:53 10° WSW 19:52:52 61° NNW 19:55:56 16° NE
STARLINK-1197 4.4 19:50:11 10° W 19:53:04 34° NNW 19:54:59 17° NE
IRIDIUM 104 4.4 19:47:57 10° N 19:53:07 58° E 19:56:26 22° SSE
STARLINK-1189 4.4 19:50:39 10° W 19:53:32 34° NNW 19:55:26 17° NE
STARLINK-1082 3.7 19:49:37 10° WNW 19:53:38 67° SW 19:55:08 36° SE
STARLINK-1130 (DARKSAT) 4.3 19:49:52 10° NW 19:53:51 43° NNE 19:55:22 30° ENE
STARLINK-1188 4.4 19:51:33 10° W 19:54:26 34° NNW 19:56:18 18° NE
Resurs 01 Rocket 1.9 19:53:04 33° ESE 19:54:30 46° ENE 19:58:45 10° N
STARLINK-1198 4.4 19:51:47 10° W 19:54:40 33° NNW 19:56:31 18° NE
FREGAT/IRIS 4.5 19:52:56 10° SSW 19:55:18 26° W 19:57:41 10° NW
Abrixas rocket 3.6 19:52:47 10° SW 19:54:13 22° SSW 19:54:13 22° SSW
Cosmos 2369 Rocket 2.7 19:50:17 10° NNW 19:55:42 42° NE 19:57:50 30° ESE
STARLINK-1199 4.5 19:53:30 10° W 19:56:23 33° NNW 19:58:12 18° NE
STARLINK-1191 4.5 19:53:58 10° W 19:56:51 33° NNW 19:58:39 18° NE
STARLINK-1210 4.5 19:54:25 10° W 19:57:18 33° NNW 19:59:04 18° NNE
STARLINK-1216 4.1 19:53:32 10° WSW 19:57:30 58° NNW 20:00:23 18° NE
STARLINK-1221 4.5 19:54:53 10° W 19:57:46 33° NNW 19:59:33 18° NNE
STARLINK-1100 3.8 19:54:11 10° WNW 19:58:11 62° SW 19:59:31 38° SSE
STARLINK-1084 4.2 19:54:50 10° NW 19:58:51 46° NNE 20:00:09 34° ENE
Meteor 2-15 Rocket 4.3 19:54:55 10° S 20:00:59 79° E 20:07:04 10° NNE
STARLINK-1237 4.2 19:58:14 10° WSW 20:02:11 54° NNW 20:04:52 19° NE
IRIDIUM 114 4.2 19:57:04 10° N 20:02:18 70° E 20:05:35 23° SSE
STARLINK-1083 3.9 19:58:49 10° WNW 20:02:47 57° SW 20:03:57 40° SSE
STARLINK-1098 4.2 19:59:48 10° NW 20:03:50 48° NNE 20:04:55 38° ENE
SPOT 3 Rocket 3.6 20:00:43 16° S 20:05:01 80° WSW 20:10:16 10° NNW
Cosmos 1726 3.2 20:06:30 30° NE 20:06:30 30° NE 20:08:47 10° NNE
STARLINK-1202 4.3 20:02:53 10° WSW 20:06:49 51° NNW 20:09:18 21° NE
STARLINK-1125 4.0 20:03:27 10° WNW 20:07:23 53° SW 20:08:23 41° S
Nadezhda 1 Rocket 4.5 20:06:17 32° ESE 20:08:08 39° E 20:13:59 10° NNE
Meteor 1-21 Rocket 4.1 20:03:04 10° N 20:08:40 74° ENE 20:11:31 30° SSE
STARLINK-1123 4.1 20:04:48 10° NW 20:08:52 51° NNE 20:09:44 43° ENE
Cosmos 2228 4.4 20:11:03 24° NE 20:11:03 24° NE 20:13:19 10° NNE
IRIDIUM 103 4.2 20:06:14 10° N 20:11:29 84° E 20:14:45 24° S
STARLINK-1109 4.1 20:07:46 10° WNW 20:11:41 49° SW 20:12:32 41° S
STARLINK-1246 4.4 20:08:01 10° W 20:11:58 49° NNW 20:14:18 22° NE
MOS 1 Rocket 3.5 20:08:23 10° NNE 20:13:37 73° ESE 20:19:00 10° S
STARLINK-1097 3.9 20:09:45 10° NW 20:13:50 54° NNE 20:14:29 48° ENE
STARLINK-1091 4.2 20:12:28 10° WNW 20:16:21 45° SW 20:17:02 41° S
Cosmos 1943 4.0 20:19:28 31° ENE 20:19:28 31° ENE 20:23:04 10° NE
Cosmos 292 Rocket 3.7 20:13:23 10° NNW 20:18:11 69° ENE 20:19:07 54° SE
STARLINK-1099 3.8 20:14:44 10° NW 20:18:50 57° NNE 20:19:16 54° NE
Cosmos 1943 Rocket 2.0 20:15:31 10° NNW 20:21:05 81° ENE 20:22:51 45° SE
STARLINK-1104 3.7 20:19:43 10° NW 20:23:50 61° NNE 20:24:04 60° NE
Cosmos 2074 Rocket 3.9 20:17:32 10° N 20:23:50 78° E 20:26:45 34° SSE
STARLINK-1144 3.7 20:24:40 10° NW 20:28:49 65° NNE 20:28:50 65° NNE
Cosmos 1953 2.5 20:29:29 43° SW 20:30:36 67° W 20:34:34 10° N
Meteor 2-10 4.0 20:28:33 31° S 20:31:14 81° E 20:36:46 10° NNE
SPOT 1/Viking Rocket 4.2 20:32:06 39° ENE 20:32:06 39° ENE 20:36:50 10° N
NOSS 3-3 (A) 3.8 20:26:20 10° SSW 20:32:00 59° ESE 20:38:23 10° NE
NOSS 3-3 (C) 3.8 20:26:27 10° SSW 20:32:06 58° ESE 20:38:28 10° NE
Spot 2 Rocket 3.5 20:33:06 59° E 20:33:32 61° ENE 20:38:34 10° N
STARLINK-1103 3.7 20:29:39 10° NW 20:33:37 68° N 20:33:37 68° N
SL-16 R/B 3.5 20:29:09 10° SW 20:34:29 41° NW 20:39:50 10° NNE
Cosmos 2084 Rocket 3.4 20:30:48 10° NW 20:35:17 84° NE 20:35:19 84° ENE
Cosmos 1610 Rocket 4.4 20:31:39 10° N 20:37:52 66° E 20:39:03 54° SE
STARLINK-1101 3.8 20:34:38 10° NW 20:38:25 68° NNW 20:38:25 68° NNW
STARLINK-1102 3.9 20:39:36 10° WNW 20:43:11 64° NW 20:43:11 64° NW
Aureole 2 Rocket 3.7 20:40:20 10° NNW 20:42:44 40° NW 20:42:44 40° NW
Terra 3.5 20:49:36 22° NE 20:49:36 22° NE 20:52:05 10° N
STARLINK-1111 4.1 20:44:34 10° WNW 20:47:58 58° NW 20:47:58 58° NW
STARLINK-1073 4.3 20:49:33 10° WNW 20:52:45 52° WNW 20:52:45 52° WNW
Cosmos 2341 Rocket 4.3 20:47:51 10° N 20:53:51 48° ENE 20:53:51 48° ENE
Cosmos 1703 4.4 20:50:33 10° N 20:53:09 40° N 20:53:09 40° N
Meteor 1-16 Rocket 4.2 20:54:16 45° SSW 20:55:55 73° WNW 21:01:24 10° N
Cosmos 1603 3.6 20:53:25 35° SSW 20:55:56 89° WNW 21:01:35 10° NNE
ATLAS 2AS CENTAUR R/B 3.2 20:48:46 10° NNW 20:56:11 49° NE 20:57:42 43° ENE
Cosmos 1825 Rocket 4.0 20:53:42 10° NNW 20:57:49 58° W 20:57:49 58° W
USA 234 3.8 20:53:01 10° NE 20:59:22 56° NNW 21:05:43 10° WSW
MetOp-B 4.2 21:01:14 63° SW 21:01:50 69° WSW 21:07:12 10° NNW
Aureole 1 Rocket 4.4 21:07:15 60° E 21:07:15 60° E 21:13:44 10° NNE
CZ-2C R/B 3.8 21:04:04 10° N 21:08:52 39° WNW 21:13:38 10° SW
COSMOS 2455 4.0 21:05:51 10° NNW 21:11:07 30° NE 21:11:09 30° NE
Meteor 1-11 4.2 21:06:22 10° NNW 21:12:06 85° WNW 21:12:06 85° WNW
Cosmos 1295 Rocket 4.4 21:10:20 10° N 21:16:37 88° W 21:16:48 85° SSW
Cosmos 1656 Rocket 3.9 21:17:40 10° NNW 21:22:37 68° NNW 21:22:37 68° NNW
ISS -0.6 21:20:37 10° WNW 21:21:09 14° WNW 21:21:09 14° WNW
ERS-1 Rocket 3.7 21:28:47 49° NNW 21:28:47 49° NNW 21:32:26 10° NNW
Resurs 01 Rocket 3.9 21:30:38 18° WSW 21:31:14 18° W 21:34:20 10° NW
SPOT 5 4.4 21:35:19 29° NNW 21:35:19 29° NNW 21:37:29 10° NNW
Cosmos 2369 Rocket 3.5 21:34:35 10° NW 21:39:36 33° WSW 21:39:39 33° WSW
SL-8 Rocket 4.4 21:51:33 10° N 21:56:35 59° NNW 21:56:35 59° NNW
Cosmos 1943 4.5 22:01:06 36° WNW 22:01:55 37° NW 22:07:12 10° NNE
Cosmos 1943 Rocket 4.4 22:01:02 10° WNW 22:04:04 15° W 22:04:25 15° WSW
NOSS 3-4 (A) 4.1 22:07:36 10° NW 22:13:24 63° WNW 22:13:24 63° WNW
NOSS 3-4 (C) 4.1 22:07:42 10° NW 22:13:29 63° WNW 22:13:29 63° WNW
Terra 4.1 22:28:30 21° NW 22:28:30 21° NW 22:30:14 10° NNW
ATLAS 2AS CENTAUR R/B 3.8 22:40:06 10° NW 22:45:08 38° WNW 22:45:08 38° WNW
Cosmos 1980 Rocket 4.4 22:48:27 10° N 22:50:54 18° NNE 22:50:54 18° NNE
